sat.trackr.live / text

‹ back to catalog

STARLINK-32515

NORAD 61705 · 2024-195U

PAYLOAD ACTIVE UNKNOWN

§ Identity

Operator
Country
US
Launch date
2024-10-30
Launch site
AFWTR
Launch vehicle
Mass (kg)
RCS (m²)

Purposes: comms

External: N2YO · Heavens-Above · Gunter

§ Orbital elements

Epoch: 2026-09-21T11:29:21.071040Z

Period
93.85 min
Inclination
53.1611°
Eccentricity
0.0001227
Mean motion
15.34386958 rev/d
Perigee alt
461.9 km
Apogee alt
463.6 km
Semi-major
6,840.9 km
B*
8.0255e-7
RAAN
324.8084°
Arg perigee
85.8482°
Mean anomaly
274.2661°
Rev number
10,717

§ Raw data

STARLINK-325151 61705U 24195U   26264.47871610 -.00000349  00000+0  80255-6 0  99962 61705  53.1611 324.8084 0001227  85.8482 274.2661 15.34386958107170

JSON: /api/v1/satellites/61705 · /tle

For live sub-satellite position, see the globe view (requires WebGL).

§ Visibility from observer

Set your observer location to see the next 7 days of passes ≥ 10°. The values pass through the URL so the page stays shareable.

No JS? Fill the form by hand. The geolocation button needs JavaScript.